This demonstration page uses our WeatherBlox Daily Observations layout. Learn more.

Left ArrowRight Arrow

39.08367, -84.50855

Hourly Observations for November 18, 2022

Temp ( °F °C ) Dew Point ( °F °C ) Humidity (%) Winds ( mph kmh ) Pressure ( in mb ) Visibility ( mi km ) Precip ( " mm )
12:53 am 00:53 Cloudy with Haze 30 -1.1 22 -5.6 71 71 SW 8 13 30.25 1024 6 10 0.00 0.00
1:53 am 01:53 Cloudy with Haze 31 -0.6 22 -5.6 69 69 SSW 10 17 30.24 1024 6 10 0.00 0.00
2:53 am 02:53 Cloudy 31 -0.6 21 -6.1 66 66 SSW 9 15 30.22 1024 7 11 0.00 0.00
3:53 am 03:53 Cloudy 32 0 22 -5.6 66 66 SW 9 15 30.21 1023 8 13 0.00 0.00
4:53 am 04:53 Cloudy 32 0 22 -5.6 66 66 SSW 9 15 30.21 1023 8 13 0.00 0.00
5:53 am 05:53 Cloudy 32 0 23 -5 69 69 S 9 15 30.21 1023 8 13 0.00 0.00
6:53 am 06:53 Cloudy 34 1.1 22 -5.6 61 61 SW 9 15 30.22 1023 9 14 0.00 0.00
7:53 am 07:53 Cloudy 33 0.6 23 -5 66 66 SW 7 11 30.21 1023 9 14 0.00 0.00
8:53 am 08:53 Cloudy 34 1.1 22 -5.6 61 61 WSW 14 22 30.22 1023 10 16 0.00 0.00
9:53 am 09:53 Cloudy 35 1.7 20 -6.7 54 54 WSW 20 31 30.23 1024 10 16 0.00 0.00
10:53 am 10:53 Mostly Cloudy 33 0.6 14 -10 45 45 W 18 30 30.27 1025 10 16 0.00 0.00
11:53 am 11:53 Mostly Cloudy 32 0 12 -11.1 43 43 W 20 31 30.28 1026 10 16 0.00 0.00
12:53 pm 12:53 Mostly Cloudy 32 0 13 -10.6 45 45 WNW 17 28 30.28 1025 10 16 0.00 0.00
1:53 pm 13:53 Mostly Cloudy 34 1.1 14 -10 43 43 W 15 24 30.27 1025 10 16 0.00 0.00
2:53 pm 14:53 Mostly Cloudy 33 0.6 13 -10.6 43 43 W 12 19 30.28 1025 10 16 0.00 0.00
3:53 pm 15:53 Mostly Cloudy 34 1.1 13 -10.6 41 41 WSW 13 20 30.27 1025 10 16 0.00 0.00
4:53 pm 16:53 Mostly Cloudy 33 0.6 13 -10.6 43 43 W 7 11 30.28 1025 10 16 0.00 0.00
5:53 pm 17:53 Mostly Cloudy 31 -0.6 13 -10.6 47 47 WNW 9 15 30.29 1026 10 16 0.00 0.00
6:53 pm 18:53 Partly Cloudy 29 -1.7 14 -10 53 53 W 5 7 30.29 1026 10 16 0.00 0.00
7:53 pm 19:53 Clear 27 -2.8 13 -10.6 55 55 W 6 9 30.31 1026 10 16 0.00 0.00
8:53 pm 20:53 Clear 29 -1.7 12 -11.1 49 49 W 13 20 30.32 1027 10 16 0.00 0.00
9:53 pm 21:53 Clear 28 -2.2 13 -10.6 52 52 WNW 6 9 30.32 1027 10 16 0.00 0.00
10:53 pm 22:53 Clear 26 -3.3 15 -9.4 63 63 WNW 3 6 30.33 1027 10 16 0.00 0.00
11:53 pm 23:53 Clear 23 -5 15 -9.4 71 71 Calm 30.33 1027 10 16 0.00 0.00

Powered by AerisWeather